Weather in Shvedino

Russia / Stavropol Krai     45°24′58″N   42°52′53″E
temp.,
°C
wind,
m/s
gust,
m/s
humid.,
%
clouds,
%
prec.,
mm/h
press.,
hPa
HPBL,
m
28 february, sun
sun2800:00+3w71593100 1.4 1014484
03:00+2w4898100 2.6 1015250
06:00+1nw2499100 0.9 1015100
09:00+2nnw2499100 1.6 1015135
12:00+2nnw3595100 0.1 1016320
15:00+4nw4579100 0.1 1017736
18:00+3nnw2388100 0.1 101886
21:00+1wnw2290100 0.1 102025
1 march, mon
mon100:000wnw239195 0.0 102037
03:000wnw239563 0.0 102157
06:000w349887 0.0 1023223
09:00+1w349294 0.1 1025357
12:00+2wnw4586100 0.1 1025489
15:00+3wnw458298 0.3 1026590
18:00+1nw128987 0.1 102726
21:00+1wsw239191 0.1 102884
2 march, tue
tue200:000wsw359682 0.0 1028194
03:00−1wnw239466 0.0 102889
06:00−1w35979 0.0 1028151
09:00+1w468721 0.0 1028461
12:00+5w696284 0.0 10271290
15:00+4w7107292 0.1 10241246
18:00+3w7127196 0.0 10231019
21:00+1w6168098 0.0 1022993
3 march, wed
wed300:00+1w91877100 0.0 10201066
03:00+1w112075100 0.0 10181028
06:00+2w122177100 0.0 10171171
09:00+2w132092100 0.4 10171266
12:00+1wnw91496100 2.6 1018765
15:00+2wnw81290100 3.3 1018838
18:00+1wnw499071 0.8 1021252
21:00−1nw388752 0.9 1024184
4 march, thu
thu400:00−1w35880 0.0 1025105
03:00−1w378827 0.0 1026182
06:00−1w4788100 0.0 1027207
09:00+1w467176 0.0 1027823
12:00+4w456364 0.0 10261087
15:00+4w456278 0.0 10251073
18:00+1wsw33773 0.0 102433
21:000sw33801 0.0 102442